Regional Weather Roundup
Issued by NWS

Home | Current Version | Previous Version | Graphics & Text | Print | Product List | Glossary On
Versions: 1 2 3 4 5 6 7 8 9 10 11 12 13 14 15 16 17 18 19 20 21 22 23 24 25 26 27 28 29 30 31 32 33 34 35 36 37 38 39 40 41 42 43 44 45 46 47 48 49 50
000
ASUS43 KDTX 290301
RWRMI
MICHIGAN HOURLY REGIONAL WEATHER ROUNDUP
NATIONAL WEATHER SERVICE DETROIT/PONTIAC MI
1100 PM EDT TUE MAR 28 2017

NOTE: "FAIR" INDICATES FEW OR NO CLOUDS BELOW 12,000 FEET WITH NO
SIGNIFICANT WEATHER AND/OR OBSTRUCTION TO VISIBILITY.

MIZ047>049-052>055-059>063-066>070-074>076-081>083-290400-
SOUTHEAST LOWER MICHIGAN

CITY           SKY/WX    TMP DP  RH WIND       PRES   REMARKS
ADRIAN         CLEAR     38  36  92 NW6       30.21R WCI  33
ALMA           CLEAR     38  36  93 E3        30.24R
ANN ARBOR      CLEAR     40  34  79 N5        30.20R
BAD AXE        CLEAR     31  28  91 CALM      30.23S
CARO           CLEAR     32  30  92 CALM      30.22S
DETROIT CITY   CLEAR     40  34  79 N8        30.21R WCI  34
DETROIT        CLEAR     42  35  76 NE5       30.21R
FLINT          CLEAR     39  32  76 NE3       30.23R
GROSSE ILE     CLEAR     38  34  87 NE7       30.20R WCI  32
HILLSDALE      CLEAR     34  34 100 CALM      30.19S FOG
HOWELL         CLEAR     38  33  83 CALM      30.21R

CITY           SKY/WX    TMP DP  RH WIND       PRES   REMARKS
JACKSON        CLEAR     37  33  85 CALM      30.20R
LAMBERTVILLE   CLEAR     41  37  85 E3        30.20R
LANSING        CLEAR     36  32  85 NE5       30.22R WCI  32
LAPEER         FAIR      36  32  85 CALM      30.23R
MASON          CLEAR     37  35  91 CALM      30.21S
MONROE         CLEAR     40  37  89 E3        30.20R
MT. CLEMENS    CLEAR     36  33  87 N8        30.19R WCI  30
PONTIAC        CLEAR     38  32  79 NE3       30.20R
PORT HOPE        N/A     33  30  88 W3        30.21S
PORT HURON     CLEAR     36  30  80 N6        30.21S WCI  31
TRI CITIES     CLEAR     35  34  96 NE3       30.23S
MIDLAND        FAIR      33  30  90 CALM      30.23S
TROY           CLEAR     40  33  75 N3        30.23R
SAGINAW HB     CLEAR     36  32  87 CALM      30.23S
$$
MIZ043>046-050>051-056>058-064>065-071>073-077>080-290400-
SOUTHWEST LOWER MICHIGAN

CITY           SKY/WX    TMP DP  RH WIND       PRES   REMARKS
BATTLE CREEK   CLEAR     37  34  89 CALM      30.21R
BENTON HARBOR  CLEAR     36  33  89 VRB3      30.22R
BIG RAPIDS     CLEAR     43  32  66 CALM      30.21R
COLDWATER      CLEAR     37  36  99 CALM      30.20S
FREMONT        FAIR      39  35  86 CALM      30.21R
HOLLAND        FOG       32  31  96 W3        30.23R VSB 1
GRAND RAPIDS   CLEAR     40  37  89 CALM      30.21R
IONIA          FAIR      36  35  93 E5        30.20S WCI  32
KALAMAZOO      CLEAR     37  34  89 CALM      30.21R
LUDINGTON      CLEAR     35  34  96 CALM      30.22R
MARSHALL       CLEAR     35  34  96 CALM      30.21R
MOUNT PLEASANT CLEAR     37  32  81 CALM      30.23S
MUSKEGON       FOG       34  33  96 CALM      30.22R VSB 1/2
SOUTH HAVEN    CLEAR     32  32  99 CALM      30.22S
$$
MIZ016>042-290400-
NORTHERN LOWER MICHIGAN

CITY           SKY/WX    TMP DP  RH WIND       PRES   REMARKS
ALPENA         CLEAR     34  31  88 CALM      30.22S
BEAVER ISLAND  CLEAR     28  28 100 CALM      30.25R
BELLAIRE       CLEAR     32  31  95 CALM      30.25R
CADILLAC       CLEAR     35  32  87 CALM      30.22R
CHARLEVOIX     CLEAR     31  31 100 CALM      30.27R
FRANKFORT      CLEAR     33  31  92 CALM      30.23R
GAYLORD        CLEAR     36  26  67 W3        30.21S
GRAYLING       CLEAR     30  27  86 CALM      30.23S
HARBOR SPRINGS CLEAR     29  29  99 CALM      30.24R
HOUGHTON LAKE  CLEAR     35  32  88 CALM      30.22R
MANISTEE       CLEAR     33  32  96 E6        30.23R WCI  28
OSCODA         CLEAR     31  27  86 SW3       30.22R
PELLSTON       CLEAR     32  27  81 CALM      30.23S
ROGERS CITY    CLEAR     40  30  68 W5        30.23R
TRAVERSE CITY  CLEAR     32  30  92 CALM      30.23R
$$
MIZ007>008-015-290400-
EASTERN UPPER MICHIGAN

CITY           SKY/WX    TMP DP  RH WIND       PRES   REMARKS
KINROSS        CLEAR     33  30  88 CALM      30.23R
MACKINAC ISLAN PTCLDY    33  31  90 NW6       30.24R WCI  28
NEWBERRY       CLEAR     34  31  88 NW6       30.24R WCI  29
S. S. MARIE    PTCLDY    35  30  82 W7        30.21S WCI  29
MUNISING         N/A     33  32  96 N6        30.28R WCI  28
$$
MIZ004>006-011>014-085-290400-
CENTRAL UPPER MICHIGAN

CITY           SKY/WX    TMP DP  RH WIND       PRES   REMARKS
MANISTIQUE     MOCLDY    33  32  96 NW7       30.25R WCI  27
ESCANABA       MOCLDY    28  28 100 W3        30.27R
MENOMINEE        N/A    N/A N/A N/A MISG        N/A
SAWYER-GWINN   CLEAR     31  27  83 CALM      30.27R
$$
MIZ001>003-009>011-084-290400-
WESTERN UPPER MICHIGAN

CITY           SKY/WX    TMP DP  RH WIND       PRES   REMARKS
IRON MOUNTAIN  PTCLDY    38  28  67 CALM      30.24R
HOUGHTON       CLEAR     35  26  69 NE7       30.27R WCI  29
COPPER HARBOR    N/A     30  27  88 CALM      30.30R
IRONWOOD       CLEAR     34  26  72 E5        30.24R WCI  30
$$

ABBREVIATIONS USED IN REMARKS
   TC - TEMPERATURE IN CELSIUS
  WCI - WIND CHILL INDEX
   HX - HEAT INDEX
  VSB - VISIBILITY





USA.gov is the U.S. government's official web portal to all federal, state and local government web resources and services.